Regional Weather Roundup
Issued by NWS

Home | Current Version | Previous Version | Graphics & Text | Print | Product List | Glossary On
Versions: 1 2 3 4 5 6 7 8 9 10 11 12 13 14 15 16 17 18 19 20 21 22 23 24 25 26 27 28 29 30 31 32 33 34 35 36 37 38 39 40 41 42 43 44 45 46 47 48 49 50
000
ASUS43 KMKX 211821
RWRWI

WISCONSIN REGIONAL WEATHER ROUNDUP
NATIONAL WEATHER SERVICE MILWAUKEE/SULLIVAN WI
100 PM CDT THU AUG 21 2014

NOTE: "FAIR" INDICATES FEW OR NO CLOUDS BELOW 12,000 FEET WITH NO
SIGNIFICANT WEATHER AND/OR OBSTRUCTIONS TO VISIBILITY.

WIZ001-002-006>008-014>016-023>028-211900-
NORTHWEST WISCONSIN

CITY           SKY/WX    TMP DP  RH WIND       PRES   REMARKS
SUPERIOR ARPT  CLOUDY    63  61  94 NE10G18   29.88S
6HR MIN TEMP:  59; 6HR MAX TEMP:  63;

ASHLAND        CLOUDY    69  64  84 N10       29.89S
6HR MIN TEMP:  58; 6HR MAX TEMP:  70;

HAYWARD        CLOUDY    73  68  84 VRB5      29.87S
6HR MIN TEMP:  61; 6HR MAX TEMP:  73; 6HR PCP:  0.20;

SIREN          CLOUDY    73  68  86 SE6       29.84F
6HR MIN TEMP:  65; 6HR MAX TEMP:  73; 6HR PCP:  0.17;

RICE LAKE      CLOUDY    73  67  80 SE8       29.86S
6HR MIN TEMP:  64; 6HR MAX TEMP:  74; 6HR PCP:  0.01;

LADYSMITH      CLOUDY    73  68  83 SE7       29.89S
6HR MIN TEMP:  63; 6HR MAX TEMP:  73; 6HR PCP:  0.71;

EAU CLAIRE     CLOUDY    76  69  79 SE10      29.83F
6HR MIN TEMP:  66; 6HR MAX TEMP:  76; 6HR PCP:  0.17;

MENOMONIE      CLOUDY    77  69  75 E12G17    29.82F
6HR MIN TEMP:  66; 6HR MAX TEMP:  76; 6HR PCP:  0.39;

NEW RICHMOND   CLOUDY    73  70  90 E9        29.82R
6HR MIN TEMP:  65; 6HR MAX TEMP:  74; 6HR PCP:  0.96;

OSCEOLA        CLOUDY    73  71  94 E8        29.83S
6HR MIN TEMP:  66; 6HR MAX TEMP:  75; 6HR PCP:  0.24;

$$

WIZ003>005-009-010-017-018-211900-
NORTH CENTRAL WISCONSIN

CITY           SKY/WX    TMP DP  RH WIND       PRES   REMARKS
WOODRUFF       CLOUDY    72  67  83 SE7       29.94F
6HR MIN TEMP:  62; 6HR MAX TEMP:  72;

RHINELANDER    CLOUDY    67  63  87 SE8       29.96F
6HR MIN TEMP:  60; 6HR MAX TEMP:  67;

EAGLE RIVER    CLOUDY    68  63  85 SE7       29.96S
6HR MIN TEMP:  61; 6HR MAX TEMP:  69;

LAND O LAKES   CLOUDY    69  63  80 SE7       29.97S
6HR MIN TEMP:  61; 6HR MAX TEMP:  70;

PHILLIPS       CLOUDY    67  65  94 SE7       29.91S
6HR MIN TEMP:  59; 6HR MAX TEMP:  67; 6HR PCP:  0.05;

TOMAHAWK       CLOUDY    65  64  97 SE5       29.94F FOG
6HR MIN TEMP:  59; 6HR MAX TEMP:  65;

MEDFORD        CLOUDY    68  66  93 SE9       29.90F
6HR MIN TEMP:  62; 6HR MAX TEMP:  68; 6HR PCP:  0.21;

MERRILL        LGT RAIN  67  66  96 SE9       29.93F
6HR MIN TEMP:  59; 6HR MAX TEMP:  67;

$$

WIZ029-030-035-036-043>047-211900-
CENTRAL WISCONSIN

CITY           SKY/WX    TMP DP  RH WIND       PRES   REMARKS
WAUSAU         CLOUDY    66  65  96 SE8       29.91F
6HR MIN TEMP:  61; 6HR MAX TEMP:  66; 6HR PCP:  0.17;

MOSINEE        CLOUDY    66  66 100 E9G16     29.92F FOG
MARSHFIELD     CLOUDY    75  68  78 E9        29.88F
6HR MIN TEMP:  64; 6HR MAX TEMP:  75; 6HR PCP:  0.33;

STEVENS POINT  CLOUDY    67  65  93 E13       29.91F
6HR MIN TEMP:  61; 6HR MAX TEMP:  67; 6HR PCP:  0.12;

WAUPACA        CLOUDY    70  68  94 E6        29.93F FOG
6HR MIN TEMP:  65; 6HR MAX TEMP:  70; 6HR PCP:  0.25;

WAUTOMA        CLOUDY    70  69  96 E5        29.90F
6HR MIN TEMP:  65; 6HR MAX TEMP:  70; 6HR PCP: TRACE;

WISC RAPIDS    CLOUDY    72  68  87 SE8       29.90F
6HR MIN TEMP:  64; 6HR MAX TEMP:  73; 6HR PCP:  0.94;

CAMP DOUGLAS   CLOUDY    72  72 100 SE8       29.90R
                                      6HR PCP:  0.32;

$$

WIZ011>013-019>022-031-037>040-048>050-211900-
NORTHEAST WISCONSIN

CITY           SKY/WX    TMP DP  RH WIND       PRES   REMARKS
ANTIGO         LGT RAIN  65  64  96 SE8       29.96F
6HR MIN TEMP:  61; 6HR MAX TEMP:  65; 6HR PCP:  0.01;

STURGEON BAY   CLOUDY    66  61  82 SE7       29.99S
6HR MIN TEMP:  61; 6HR MAX TEMP:  66;

GREEN BAY      LGT RAIN  68  65  90 SE7       29.97S
6HR MIN TEMP:  63; 6HR MAX TEMP:  71; 6HR PCP:  0.03;

MANITOWOC      LGT RAIN  67  64  90 CALM      29.98R
6HR MIN TEMP:  63; 6HR MAX TEMP:  68; 6HR PCP: TRACE;

APPLETON       LGT RAIN  66  66 100 VRB5      29.96F FOG
CLINTONVILLE   DRIZZLE   68  64  88 E9        29.93F
OSHKOSH        LGT RAIN  70  69  97 SE9       29.91F FOG
6HR MIN TEMP:  68; 6HR MAX TEMP:  70; 6HR PCP:  0.25;

$$

WIZ032>034-041-042-053>061-211900-
SOUTHWEST WISCONSIN

CITY           SKY/WX    TMP DP  RH WIND       PRES   REMARKS
LA CROSSE      CLOUDY    79  70  74 S10       29.84S HX  82
6HR MIN TEMP:  70; 6HR MAX TEMP:  79; 6HR PCP:  0.34;

SPARTA         PTSUNNY   78  68  71 E5        29.88R
6HR MIN TEMP:  67; 6HR MAX TEMP:  78; 6HR PCP:  0.28;

VIROQUA        CLOUDY    74  73  98 S10       29.89R
6HR MIN TEMP:  67; 6HR MAX TEMP:  74; 6HR PCP:  0.55;

BOSCOBEL       CLOUDY    76  71  85 CALM      29.84F
6HR MIN TEMP:  70; 6HR MAX TEMP:  74; 6HR PCP:  0.40;

PRAIRIE DU CHI CLOUDY    76  71  84 S6        29.85R
6HR MIN TEMP:  70; 6HR MAX TEMP:  76; 6HR PCP:  0.58;

PLATTEVILLE    FAIR      73  72  95 SE6       29.93F
6HR MIN TEMP:  69; 6HR MAX TEMP:  74; 6HR PCP:  0.22;

$$

WIZ056-057-062-063-064-067-068-211900-
SOUTH CENTRAL WISCONSIN

CITY           SKY/WX    TMP DP  RH WIND       PRES   REMARKS
BARABOO/DELLS  CLOUDY    70  68  92 E10       29.90F
6HR MIN TEMP:  65; 6HR MAX TEMP:  71; 6HR PCP:  0.25;

LONE ROCK      CLOUDY    79  71  76 E8        29.89R HX  82
6HR MIN TEMP:  72; 6HR MAX TEMP:  78; 6HR PCP:  0.33;

WATERTOWN      LGT RAIN  69  69 100 E6        29.97F
6HR MIN TEMP:  66; 6HR MAX TEMP:  70; 6HR PCP:  0.19;

MADISON        LGT RAIN  72  70  93 SE9       29.93F
6HR MIN TEMP:  70; 6HR MAX TEMP:  72; 6HR PCP:  0.61;

MIDDLETON      MOCLDY    73  73  99 E8        29.94F
6HR MIN TEMP:  69; 6HR MAX TEMP:  73; 6HR PCP:  0.50;

MONROE         RAIN      72  70  94 CALM      29.97R
JANESVILLE     MOSUNNY   73  70  88 E5        29.94F
$$

WIZ051-052-058>065-066-070>072-211900-
SOUTHEAST WISCONSIN

CITY           SKY/WX    TMP DP  RH WIND       PRES   REMARKS
MILWAUKEE      TSTM      70  68  93 NW6       30.03R VSB 1
6HR MIN TEMP:  68; 6HR MAX TEMP:  74; 6HR PCP:  0.02;

WAUKESHA       RAIN      70  68  94 NW5       30.02R FOG
MILWAUKEE/TIMM RAIN      70  66  88 NW3       30.01R
RACINE         LGT RAIN  73  70  90 NW6       30.03R FOG
6HR MIN TEMP:  68; 6HR MAX TEMP:  76; 6HR PCP: TRACE;

BURLINGTON     RAIN      69  68  96 N3        29.99R
6HR MIN TEMP:  65; 6HR MAX TEMP:  72; 6HR PCP:  0.04;

KENOSHA        LGT RAIN  73  71  93 W3        29.98R
6HR MIN TEMP:  67; 6HR MAX TEMP:  77; 6HR PCP:  0.03;

FOND DU LAC    RAIN      69  67  93 SE9       29.95F FOG
6HR MIN TEMP:  65; 6HR MAX TEMP:  71; 6HR PCP:  0.31;

SHEBOYGAN      HVY RAIN  67  64  90 SW8       30.00R FOG
6HR MIN TEMP:  61; 6HR MAX TEMP:  70; 6HR PCP:  0.04;

WEST BEND      RAIN      66  63  88 CALM      30.00R
JUNEAU         LGT RAIN  69  43  39 E12       29.94F
6HR MIN TEMP:  65; 6HR MAX TEMP:  70; 6HR PCP:  0.68;

$$

LSZ147-162-211900-
LAKE SUPERIOR

STATION/POSITION TIME  TEMP    WIND        PRES    WAVE
                       AIR SEA DIR/SP/G            HT/PER
                 (UTC) (F)     (DEG/KT/KT) (MB)    (FT/S)
W MID LAKE BUOY  1750   58 59   50/ 12/ 16 1013.3F   1/ 3
PORT WING        1740   67      30/ 14/ 16 1011.9F
SAXON HARBOR     1700   65      40/  6/  8 1012.5S
$$

LMZ867-665-643>646-211900-
LAKE MICHIGAN

STATION/POSITION TIME  TEMP    WIND        PRES    WAVE
                       AIR SEA DIR/SP/G            HT/PER
                 (UTC) (F)     (DEG/KT/KT) (MB)    (FT/S)
N MID LAKE BUOY  1750   65 65  110/  4/  6 1014.7F   0
NORTHPORT PIER   1700   65     130/  6/  7 1015.2R
SISTER BAY       1741   70     170/ 10/ 12   N/A
ALGOMA LAKESHORE 1738             CALM       N/A
KEWAUNEE LAKESHO 1800   66     100/  1/  3 1014.4R
SHEBOYGAN LAKESH 1800   67 67  220/  2/  3 1015.8R
ATWATER BUOY     1800   69     310/  8/  8 1017.4R
MILWAUKEE LAKESH 1800   70     300/  3/  5   N/A
S MID LAKE BUOY  1750   69 69  200/  8/  8 1014.6R   0
KENOSHA   LAKESH 1800   74     260/  6/  7 1014.9R
$$

TC  - TEMPERATURE IN CELSIUS
VSB - VISIBILITY IN STATUTE MILES
WCI - WIND CHILL INDEX
HX  - HEAT INDEX



USA.gov is the U.S. government's official web portal to all federal, state and local government web resources and services.